Presure
325 314 329 340 350 364 355 240 360 259 168 232 221 197 198 201 204 145 84 88 178 81 93 85 85 87 103 84 88 83 80 107 138 145 107 97 148 125 117 135 81 95 143 127 110
325 327 328 329 352 389 380 351 333 155 243 226 238 211 203 202 196 206 88 89 90 136 89 84 88 89 85 89 87 89 88 87 88 109 146 86 95 90 105 134 139 139 114 105 144
337 341 347 356 347 355 339 364 346 250 169 269 256 244 208 200 207 195 208 90 85 89 178 142 80 83 84 90 84 89 84 84 89 84 97 110 139 98 98 83 86 142 93 91 133
357 343 381 308 304 285 271 341 163 289 189 178 240 241 223 207 201 202 201 207 213 199 88 87 124 163 95 94 86 86 84 88 81 87 77 111 89 98 92 130 96 93 128 95 128
305 305 290 278 273 253 263 309 128 202 231 213 229 258 242 216 231 203 204 201 205 220 210 88 110 91 111 86 86 93 94 90 84 147 91 78 89 90 147 115 92 124 160 144 117
292 276 274 266 271 245 155 182 317 184 148 236 187 207 244 226 207 209 207 206 218 210 216 204 170 86 80 78 84 120 116 87 84 89 85 90 149 91 131 137 106 94 93 96 160
283 269 276 285 278 201 292 129 316 281 281 157 225 183 247 238 228 208 208 199 212 210 213 194 206 186 97 163 93 90 92 94 81 83 92 88 92 83 145 91 89 78 98 98 100
273 295 282 280 248 287 271 312 143 295 269 229 215 224 244 233 243 214 225 199 212 199 207 205 192 194 195 177 168 115 93 90 92 94 95 94 98 97 93 109 141 136 141 84 96
264 286 284 292 204 290 126 312 299 285 266 223 263 267 248 250 235 226 217 215 216 219 222 208 210 207 203 201 179 168 168 172 169 166 148 128 110 94 110 138 163 170 124 94 145
276 294 286 310 255 241 297 255 293 256 254 261 255 209 239 241 251 254 241 226 212 210 203 215 212 214 208 216 201 191 186 176 169 169 163 146 177 180 145 182 144 131 195 183 184
317 186 190 135 313 285 270 292 262 245 259 264 255 209 243 248 243 241 238 226 212 219 203 204 224 205 196 202 207 209 198 196 199 177 176 183 181 188 193 194 197 207 214 216 228
186 249 219 270 294 142 281 243 257 255 226 198 222 234 238 258 261 259 268 252 207 207 215 212 195 196 198 202 212 213 214 211 215 211 194 198 197 196 204 210 213 218 226 275 236
247 264 152 231 224 247 242 243 245 246 248 255 240 206 203 257 258 268 264 251 244 235 197 194 192 195 197 199 199 212 218 222 219 206 202 203 208 213 215 228 229 224 238 243 199
270 115 189 152 216 217 220 203 223 227 229 230 231 246 269 269 274 269 268 244 242 199 195 198 200 204 204 209 228 225 221 220 221 218 216 215 215 220 223 210 240 238 195 219 238
213 231 226 198 150 225 157 213 218 226 252 248 267 263 252 260 258 268 262 254 249 248 240 236 238 242 239 234 233 233 235 236 241 244 237 252 290 278 240 192 216 239 242 237 256
227 247 200 208 214 235 204 255 136 208 199 199 171 170 203 199 236 231 219 245 253 247 245 241 240 240 239 241 244 249 252 258 254 284 281 199 209 218 231 237 239 244 328 316 303
271 244 239 253 238 187 179 221 214 218 207 150 201 189 220 234 234 270 237 186 177 176 174 179 183 257 186 181 187 232 200 204 207 218 224 239 305 331 323 323 315 304 296 287 277
285 341 290 251 227 217 221 217 204 218 234 236 226 189 221 213 219 194 198 194 222 228 188 195 209 205 205 209 216 215 223 219 245 330 330 329 319 298 297 290 284 240 260 272 271
208 212 296 340 335 251 236 241 241 225 216 195 193 202 203 229 207 201 216 212 210 218 225 224 238 254 260 349 339 318 303 298 216 211 213 216 224 284 283 283 290 297 304 271 242
194 171 202 204 203 253 336 353 299 291 280 248 248 249 245 246 265 277 261 276 300 317 206 203 221 209 239 245 296 291 309 303 315 297 307 283 288 292 297 278 246 256 251 242 236
169 178 167 181 184 190 194 213 153 233 282 283 279 285 285 272 274 278 285 289 288 296 302 308 315 313 315 266 274 278 259 256 253 243 253 243 237 208 237 231 223 221 217 170 169
162 167 185 181 182 189 135 189 184 195 191 215 210 208 215 219 214 213 212 217 223 246 240 235 230 229 234 233 231 232 152 155 229 228 225 218 204 181 206 200 179 180 209 210 209
185 158 141 164 172 176 185 142 169 144 172 177 192 180 189 186 185 191 206 202 196 201 196 196 183 193 196 207 203 209 206 210 211 208 209 207 198 207 201 199 200 192 184 188 193
148 154 175 164 149 162 166 164 178 181 179 149 129 145 166 188 180 186 179 177 180 165 160 161 174 175 194 184 190 192 184 195 181 188 191 193 204 195 203 195 192 197 196 194 191
137 159 154 167 175 169 173 168 169 167 161 178 176 175 167 170 173 166 185 139 155 178 176 186 182 172 185 186 175 195 177 176 182 176 183 211 206 191 177 200 189 183 207 204 184
174 172 166 164 167 171 151 179 169 173 154 164 163 185 186 164 168 168 196 211 157 157 156 157 172 184 188 163 175 164 196 166 202 172 179 179 168 173 203 170 183 195 174 189 172
148 127 149 179 155 176 166 158 163 175 168 166 167 174 164 162 173 171 161 166 179 172 161 160 173 174 191 184 193 162 182 163 172 198 178 209 172 173 178 198 166 157 170 169 198
Wind_Speed
35 34 30 27 27 41 54 67 93 92 63 109 112 100 102 99 98 73 42 42 85 30 40 29 27 26 35 22 19 20 19 33 45 48 24 15 45 35 29 34 17 11 44 32 26
30 28 24 28 29 38 46 61 71 56 85 90 105 107 106 102 92 98 50 47 44 63 39 30 31 31 24 24 22 21 21 19 18 31 49 16 20 17 32 45 48 47 32 23 44
26 23 29 40 45 32 44 51 69 81 57 100 103 102 110 98 101 91 92 55 43 43 81 64 28 28 27 30 23 26 24 24 24 21 26 35 48 26 26 20 21 48 21 24 42
35 50 53 59 49 44 53 45 47 83 65 58 98 92 109 107 96 95 88 89 89 82 42 40 52 65 43 37 28 28 28 29 26 26 23 37 25 30 29 48 23 24 42 25 45
77 74 67 55 47 55 60 39 41 58 68 68 74 90 93 108 93 94 89 85 84 84 78 43 55 44 56 35 33 36 38 34 27 55 31 22 32 30 47 42 28 46 59 54 38
72 64 57 56 54 51 43 28 57 57 44 72 51 59 84 98 99 98 92 81 87 77 77 75 68 41 34 29 35 53 51 34 30 34 33 36 58 36 54 57 38 31 34 33 64
55 54 56 46 43 46 43 31 64 72 78 44 67 39 74 83 92 90 85 69 76 72 67 70 74 77 59 66 49 48 46 47 34 35 40 36 35 29 60 36 32 35 41 37 39
27 34 42 44 35 38 46 52 40 69 71 64 54 58 73 81 77 86 88 61 71 60 60 66 72 73 75 72 66 57 55 49 48 48 47 45 43 44 44 49 60 57 60 30 42
19 28 32 38 31 39 24 59 59 63 63 49 62 64 66 67 78 84 79 76 74 72 71 63 67 67 72 75 72 62 61 64 65 65 65 61 53 47 54 63 70 71 58 46 63
25 22 35 43 39 43 46 42 52 54 51 52 52 38 50 66 62 63 67 71 56 53 52 61 58 61 64 65 74 75 73 71 64 66 65 67 73 74 64 76 64 61 78 75 75
36 27 25 18 55 49 48 48 53 50 45 48 49 33 48 53 58 63 68 67 61 62 50 54 63 59 64 65 67 72 75 75 74 70 69 70 73 75 75 76 79 80 82 83 88
33 36 46 44 49 25 47 43 42 39 38 24 38 37 38 39 43 48 52 59 50 51 55 53 56 56 57 60 62 67 70 73 74 73 71 73 74 73 75 77 79 83 85 62 74
35 42 27 41 43 42 37 33 28 25 24 25 25 25 26 36 41 48 54 56 58 61 47 48 49 52 55 58 61 65 68 70 72 71 69 73 78 78 79 80 79 76 70 66 66
40 11 37 28 35 33 30 26 26 24 22 22 23 24 25 29 36 42 51 52 57 42 42 46 50 53 54 57 64 64 64 66 69 72 73 73 75 75 73 68 66 66 63 66 62
34 36 33 30 20 28 23 21 20 19 19 16 17 19 21 22 27 36 43 49 52 54 53 54 56 59 60 60 61 62 62 64 67 68 67 69 62 61 63 58 64 64 62 59 57
36 29 27 24 24 24 20 20 15 18 22 22 21 18 20 20 23 27 25 34 43 45 48 48 50 53 57 61 64 67 67 67 64 61 56 52 56 61 63 62 60 58 12 13 14
27 25 21 25 25 21 17 17 14 14 16 11 14 8 9 14 14 19 19 14 15 17 21 21 22 50 27 30 31 41 35 39 42 47 50 55 30 12 12 8 7 8 8 10 11
43 22 18 18 15 17 14 10 4 13 18 19 16 6 12 10 11 9 10 12 16 19 18 20 23 25 28 31 34 37 39 39 45 11 7 5 4 5 4 6 7 9 6 4 1
50 48 39 22 12 14 15 12 13 8 7 6 6 4 4 11 6 7 10 13 15 18 21 24 28 29 31 8 8 10 12 11 17 18 18 17 14 3 1 2 4 5 4 11 6
41 32 44 42 39 23 17 9 10 9 9 9 9 9 10 10 12 13 11 8 8 6 5 5 8 7 9 9 10 8 7 6 6 9 4 5 5 8 11 20 13 21 20 18 15
30 30 25 33 32 36 35 34 15 18 18 16 15 14 14 14 13 11 9 9 9 10 10 9 8 7 7 18 14 16 22 20 18 13 20 19 18 3 21 18 12 11 6 17 19
25 26 28 28 28 30 8 31 27 30 27 27 26 25 25 24 21 19 17 16 19 25 24 23 18 19 22 22 20 20 11 12 14 14 13 7 2 17 5 6 21 22 4 3 2
17 14 7 22 23 23 25 6 18 6 14 17 20 17 19 16 15 15 15 12 10 10 8 7 10 6 4 3 2 4 2 4 6 3 1 2 10 0 4 7 5 13 24 19 13
14 10 15 7 10 20 20 16 18 18 15 8 4 1 5 17 13 10 8 8 10 3 6 7 7 13 5 8 10 9 13 10 16 13 12 12 5 12 7 13 14 12 13 12 14
12 16 16 10 9 13 12 15 15 13 11 14 12 12 11 15 13 8 16 13 9 17 15 15 11 11 16 14 13 12 17 17 15 17 21 6 9 19 19 13 18 23 10 11 25
11 9 10 11 8 7 19 3 10 11 15 18 17 4 4 15 18 18 7 7 15 15 15 13 21 24 22 15 26 18 20 21 15 26 27 28 25 26 17 26 27 22 27 26 28
21 18 17 14 23 12 15 19 17 14 19 21 20 16 19 20 13 18 22 21 14 20 25 26 27 23 25 31 27 23 28 26 33 26 36 18 32 36 32 26 32 32 35 35 24
Wind_Direction
178 198 194 193 194 199 200 220 210 213 213 215 215 221 224 225 227 226 222 223 230 216 226 227 222 224 222 203 207 198 206 238 231 236 232 228 244 243 244 254 229 245 256 259 253
179 181 175 160 168 177 186 196 205 207 209 215 212 218 222 225 225 228 226 225 225 228 226 226 229 230 226 223 216 220 217 219 228 235 240 227 237 237 239 252 254 255 253 253 263
134 153 151 130 115 137 178 178 196 204 208 210 215 215 220 224 225 227 228 228 224 226 230 230 213 228 231 235 221 227 215 218 230 226 241 241 245 246 247 236 233 258 247 249 262
124 118 124 116 130 159 188 182 199 193 200 204 207 212 214 223 226 228 227 229 231 229 225 226 229 230 237 237 232 231 227 232 225 236 233 243 245 247 250 255 248 246 258 251 263
109 112 122 128 149 172 189 179 206 193 192 201 205 208 211 216 216 226 228 229 231 232 230 230 235 236 233 236 240 242 243 240 234 241 247 251 247 250 261 251 251 260 264 262 261
115 123 139 155 158 177 199 190 170 193 197 194 202 207 209 212 224 226 230 230 230 232 232 232 235 231 227 226 236 237 237 242 240 245 242 248 252 253 253 257 257 261 261 263 266
124 142 149 135 146 189 163 201 172 182 185 195 196 204 206 210 215 227 230 228 233 233 232 231 234 237 240 234 247 247 253 252 238 243 249 250 252 254 255 265 261 263 265 269 269
112 138 149 158 164 155 160 158 190 179 183 190 193 200 205 211 213 226 225 229 234 228 231 233 234 238 242 240 240 246 248 249 252 254 256 259 258 263 264 266 261 264 264 272 270
119 117 131 158 169 148 198 162 172 176 180 189 193 196 204 208 215 222 228 231 234 236 238 237 240 240 242 244 245 244 249 252 254 255 252 256 262 267 264 264 268 269 271 267 276
94 119 127 134 148 149 148 165 168 171 177 184 192 208 203 212 212 216 223 228 233 236 230 239 243 243 244 246 247 250 251 253 253 256 256 255 264 267 262 271 271 270 279 280 281
121 101 116 136 135 144 149 151 163 170 173 179 188 217 206 210 217 223 226 233 230 239 232 236 245 241 244 248 250 252 254 257 259 258 262 263 265 269 272 274 277 280 281 285 287
87 110 111 119 135 153 144 155 154 163 176 167 204 210 217 212 212 215 214 224 229 233 240 237 239 243 246 250 253 255 257 259 261 261 262 266 268 270 275 278 280 282 284 286 288
101 104 101 109 112 112 117 121 132 148 165 172 184 190 198 212 215 215 212 217 223 233 230 235 240 245 248 250 252 256 258 260 261 264 265 269 273 275 277 277 279 282 285 286 284
99 103 109 108 111 116 124 135 147 155 168 182 191 196 204 210 214 218 214 221 224 227 232 239 243 248 251 255 260 261 261 261 262 263 266 269 272 274 276 280 280 280 278 284 286
71 91 96 91 97 121 128 137 147 159 150 158 163 181 197 208 216 219 219 224 228 232 239 245 249 253 256 260 263 264 265 265 267 270 271 275 278 278 275 275 278 283 283 282 284
61 91 89 92 105 120 135 128 132 138 166 173 175 180 180 185 203 213 215 227 231 236 242 245 248 252 255 259 262 264 266 268 271 275 274 271 274 275 278 279 280 280 265 265 269
69 68 103 114 113 96 90 119 121 127 151 190 164 170 166 179 189 205 218 226 225 228 231 241 247 254 252 250 257 263 265 268 271 273 276 279 275 263 260 266 260 251 246 243 252
60 86 106 120 95 77 83 107 92 142 138 144 154 177 167 186 192 217 221 229 233 237 246 252 257 261 263 264 265 265 269 271 277 268 274 281 222 223 203 209 211 252 258 296 333
66 66 65 90 127 110 80 105 143 136 141 143 169 181 189 191 209 224 229 234 244 249 255 256 261 261 263 220 215 221 237 235 265 275 277 281 279 213 221 258 247 239 222 118 121
58 54 68 69 75 80 90 126 154 168 163 155 173 184 194 207 212 227 207 230 236 207 211 229 231 241 237 238 225 228 217 191 198 123 155 127 117 110 108 103 105 101 93 89 87
45 53 67 67 69 68 67 79 87 98 110 119 125 133 139 141 140 144 148 156 163 161 156 143 140 141 130 116 118 116 118 120 118 116 103 102 101 328 98 102 108 107 106 282 287
30 35 42 45 57 54 81 65 68 68 64 90 89 89 93 96 98 101 102 102 104 111 111 111 109 109 109 114 116 119 262 279 122 123 125 141 200 297 208 248 286 283 92 74 14
33 35 53 27 30 36 45 51 54 50 77 72 65 76 61 71 75 69 77 84 76 79 72 60 16 24 27 125 81 159 218 148 141 235 182 222 277 316 255 259 257 266 276 283 307
357 8 12 39 14 14 13 21 32 33 38 11 313 105 85 25 36 37 33 36 27 332 328 316 344 355 336 340 324 320 321 312 310 308 303 296 235 283 254 289 299 307 313 310 302
337 333 340 338 1 355 348 351 348 1 351 6 358 1 350 352 347 346 347 300 291 344 341 328 308 328 324 308 321 276 316 312 288 294 307 218 260 289 265 259 297 311 275 271 303
298 290 288 290 287 284 329 313 317 327 328 323 325 328 327 326 322 324 298 211 279 273 268 275 321 307 294 286 315 289 258 295 264 304 299 299 296 303 270 301 299 281 305 290 302
296 312 295 283 295 260 270 294 282 298 279 292 300 275 300 307 297 287 308 301 280 302 309 308 300 295 266 283 267 286 282 299 298 260 296 271 293 300 296 279 300 291 301 302 275